AMOS-4

Last updated on Wed Sep 17 2025 00:02:48 GMT+0000 (Coordinated Universal Time)

1 39237U 13045A 25259.59664541 -.00000013 00000+0 00000+0 0 9993 2 39237 0.0146 163.5616 0001083 45.9955 66.0368 1.00272886 44218
UTC large
Height (km)
Speed (km/s)
/
Latitude / Longitude
Inclination (degrees)
Orbital Period (minutes)
Azimuth
Elevation
Range (km)
Doppler Factor

Next 0 passes for location: London (51.5072 / 0.1276)

Sorry there are no passes over London.